Погода в Тутаеве

Россия / Республика Татарстан     55°10′57″N   48°07′54″E
темп.,
°C
ветер,
м/с
пор.,
м/с
влажн.,
%
обл.,
%
осадки,
мм/ч
давл.,
гПа
погр.,
м
10 мая, пн
пн1000:00+14юв3376100 0.1 101343
03:00+13зюз2284100 0.4 101523
06:00+14св3686100 0.1 1016153
09:00+18вюв4566100 0.1 1017404
12:00+21юв2354100 0.0 1019999
15:00+23в2347100 0.0 10191616
18:00+20ссв356599 0.3 1020102
21:00+15с589199 0.4 1022162
11 мая, вт
вт1100:00+13ссв5109593 0.0 1023195
03:00+13ссв3693100 0.0 1024115
06:00+14св4886100 0.0 1025200
09:00+19всв5658100 0.0 1026542
12:00+23в4547100 0.0 10261027
15:00+23в4444100 0.0 10261596
18:00+20св366199 0.0 1026125
21:00+17в3363100 0.0 102747
12 мая, ср
ср1200:00+16всв226589 0.0 102719
03:00+14всв236795 0.0 102726
06:00+15всв267343 0.0 1028163
09:00+21вюв465374 0.0 1028504
12:00+23вюв5747100 0.0 10281369
15:00+23вюв464411 0.0 10272004
18:00+21в366132 0.0 1027170
21:00+17вюв2266100 0.0 102716
13 мая, чт
чт1300:00+15вюв226756 0.0 102816
03:00+15вюв226392 0.0 102724
06:00+16вюв286698 0.0 1028218
09:00+20юв575057 0.0 1027601
12:00+23юв683893 0.0 10261450
15:00+24ююв57386 0.0 10261572
18:00+22юв34565 0.0 102580
21:00+17юв34595 0.0 102548
14 мая, пт
пт1400:00+16юв336077 0.0 102527
03:00+15ююв2263100 0.0 102620
06:00+16юв266994 0.1 1026162
09:00+21ююв574899 0.4 1025540
12:00+24ю68415 0.0 10251052
15:00+24ю67412 0.0 10241114
18:00+22ююв48565 0.0 1023232
21:00+18ююв34615 0.0 102246